Weather in Tegda

Russia / Republic of Buryatia     52°23′40″N   108°55′19″E
temp.,
°C
wind,
m/s
gust,
m/s
humid.,
%
clouds,
%
prec.,
mm/h
press.,
hPa
HPBL,
m
10 april, sat
sat1023:00−3w248883 0.1 1024141
02:00−5w229326 0.1 102591
05:00−5w269190 0.1 1025256
08:00−3wnw5116468 0.2 10261371
11:00−1nw694943 0.1 10261536
14:00−1nw6943100 0.1 10261426
17:00−3nw584799 0.0 10271311
20:00−8nw2171100 0.0 103023
11 april, sun
sun1123:00−9nnw227667 0.0 103143
02:00−10nw227751 0.0 103349
05:00−11nw23813 0.0 103462
08:00−8nw245515 0.0 1035889
11:00−5nw464110 0.0 10331467
14:00−5nw68395 0.0 10331537
17:00−5nnw69412 0.0 10341372
20:00−10nw22670 0.0 103731
12 april, mon
mon1223:00−11nw22751 0.0 103841
02:00−12nnw22781 0.0 103830
05:00−13nw11837 0.0 103818
08:00−8w0159100 0.0 1036352
11:00−3w1441100 0.0 10321240
14:00−1nw4640100 0.0 10291558
17:00−1nw573696 0.0 10281487
20:00−7nw21704 0.0 103014
13 april, tue
tue1323:00−8nnw22805 0.0 103031
02:00−9nnw11875 0.0 103018
05:00−10nw11938 0.0 102914
08:00−5ssw116921 0.0 1027261
11:00+1sw244339 0.0 10221380
14:00+5w463462 0.0 10161734
17:00+4w4754100 0.0 10141329
20:00−1wsw1291100 0.2 101432
14 april, wed
wed1423:00−2wnw229556 0.2 101434
02:00−3wnw268793 0.3 1015314
05:00−4w2584100 0.1 1015282
08:00−3nw4962100 0.1 10161203
11:000nw685097 0.1 10141910
14:000nw6945100 0.3 10142217
17:00−1nw6105019 0.1 10131620
20:00−5wnw256783 0.1 1015106